Leesburg, FL

6:28 AM EDT on June 23, 2017 (GMT -0400)
Leesburg Regional

Weather History for KLEE - November, 2010

Change the Weather History Date:

Sunday, November 7, 2010

  Actual Average Record
Temperature  
Mean Temperature 56 °F -  
Max Temperature 68 °F 76 °F 88 °F (2015)
Min Temperature 45 °F 54 °F 42 °F (1967)
Degree Days  
Heating Degree Days 10    
Growing Degree Days 6 (Base 50)    
Moisture  
Dew Point 37 °F    
Average Humidity 52    
Maximum Humidity 63    
Minimum Humidity 37    
Precipitation  
Precipitation 0.00 in - - ()
Sea Level Pressure  
Sea Level Pressure 30.27 in    
Wind  
Wind Speed 10 mph (North)    
Max Wind Speed 17 mph    
Max Gust Speed 26 mph    
Visibility 10 miles    
Events      
Averages and records for this station are not official NWS values.
T = Trace of Precipitation, MM = Missing Value Source: NWS Daily Summary

Daily Weather History Graph

Daily Weather History Graph

Search for Another Location

Airport or City:

Trip Planner

Search our weather history database for the weather conditions in past years. The results will help you decide how hot, cold, wet, or windy it might be!

Date:

Astronomy

Nov. 07, 2010 Rise Set
Actual Time 6:43 AM EST 5:37 PM EST
Civil Twilight 6:19 AM EST 6:02 PM EST
Nautical Twilight 5:51 AM EST 6:30 PM EST
Astronomical Twilight 5:23 AM EST 6:58 PM EST
Moon 8:16 AM EST (11/7) 6:48 PM EST (11/7)
Length of Visible Light 11h 42m
Length of Day
10h 53m
Waxing Crescent, 3% of the Moon is Illuminated
Nov 7
Waxing Crescent
Nov 13
First Quarter
Nov 21
Full
Nov 28
Last Quarter
Dec 5
New

Hourly Weather History & Observations

Time (EST) Temp. Windchill Dew Point Humidity Pressure Visibility Wind Dir Wind Speed Gust Speed Precip Events Conditions
12:53 AM 46.9 °F - 34.0 °F 61% 30.31 in 10.0 mi North 5.8 mph - N/A   Clear
1:53 AM 48.9 °F - 35.1 °F 59% 30.30 in 10.0 mi North 9.2 mph - N/A   Partly Cloudy
1:53 AM 48.0 °F - 34.0 °F 58% 30.29 in 10.0 mi North 9.2 mph - N/A   Clear
2:53 AM 46.9 °F - 32.0 °F 56% 30.28 in 10.0 mi North 11.5 mph - N/A   Clear
3:53 AM 46.0 °F 40.6 °F 30.9 °F 56% 30.27 in 10.0 mi North 11.5 mph - N/A   Clear
4:53 AM 45.0 °F 39.3 °F 30.0 °F 56% 30.28 in 10.0 mi North 11.5 mph - N/A   Clear
5:53 AM 46.0 °F 41.0 °F 30.0 °F 54% 30.29 in 10.0 mi North 10.4 mph - N/A   Clear
6:53 AM 45.0 °F 39.3 °F 30.0 °F 56% 30.31 in 10.0 mi North 11.5 mph - N/A   Clear
7:53 AM 48.0 °F - 30.0 °F 50% 30.32 in 10.0 mi North 11.5 mph - N/A   Clear
9:53 AM 57.9 °F - 37.0 °F 46% 30.33 in 10.0 mi North 11.5 mph - N/A   Clear
10:53 AM 61.0 °F - 39.0 °F 44% 30.32 in 10.0 mi North 9.2 mph - N/A   Clear
11:53 AM 64.9 °F - 42.1 °F 43% 30.29 in 10.0 mi NNE 15.0 mph 26.5 mph N/A   Clear
12:53 PM 66.0 °F - 41.0 °F 40% 30.26 in 10.0 mi NNE 17.3 mph 25.3 mph N/A   Clear
1:53 PM 66.9 °F - 39.9 °F 37% 30.22 in 10.0 mi NNE 16.1 mph 24.2 mph N/A   Partly Cloudy
2:53 PM 66.9 °F - 39.9 °F 37% 30.21 in 10.0 mi NNE 12.7 mph - N/A   Partly Cloudy
3:53 PM 64.9 °F - 39.9 °F 40% 30.21 in 10.0 mi NE 17.3 mph 21.9 mph N/A   Partly Cloudy
4:53 PM 62.1 °F - 39.9 °F 44% 30.22 in 10.0 mi NNE 13.8 mph 21.9 mph N/A   Clear
5:53 PM 57.9 °F - 41.0 °F 53% 30.24 in 10.0 mi NNE 9.2 mph - N/A   Clear
6:53 PM 55.9 °F - 42.1 °F 60% 30.25 in 10.0 mi NNE 8.1 mph - N/A   Clear
7:53 PM 54.0 °F - 41.0 °F 62% 30.25 in 10.0 mi North 9.2 mph - N/A   Clear
8:53 PM 52.0 °F - 39.0 °F 61% 30.25 in 10.0 mi North 10.4 mph - N/A   Clear
9:53 PM 51.1 °F - 39.0 °F 63% 30.25 in 10.0 mi North 8.1 mph - N/A   Clear
10:53 PM 50.0 °F - 37.9 °F 63% 30.25 in 10.0 mi North 4.6 mph - N/A   Clear